Regional Weather Roundup
Issued by NWS

Home | Current Version | Previous Version | Graphics & Text | Print | Product List | Glossary On
Versions: 1 2 3 4 5 6 7 8 9 10 11 12 13 14 15 16 17 18 19 20 21 22 23 24 25 26 27 28 29 30 31 32 33 34 35 36 37 38 39 40 41 42 43 44 45 46 47 48 49 50
000
ASUS45 KBOI 181210
RWRID
WEATHER ROUNDUP FOR IDAHO
NATIONAL WEATHER SERVICE BOISE ID
600 AM MDT SAT APR 18 2015

NOTE: "FAIR" INDICATES FEW OR NO CLOUDS BELOW 12000 FEET
WITH NO SIGNIFICANT WEATHER AND/OR OBSTRUCTIONS TO VISIBILITY

IDZ012-014-181300-
SOUTHWEST IDAHO


CITY           SKY/WX    TMP DP  RH WIND       PRES   REMARKS
BOISE          CLEAR     44  32  62 CALM      30.08R
CALDWELL       CLEAR     48  28  46 W12       30.10S
MOUNTAIN HOME  CLEAR     49  30  46 NW23G31   30.04R
$$

IDZ016-017-181300-
SOUTHCENTRAL IDAHO


CITY           SKY/WX    TMP DP  RH WIND       PRES   REMARKS
BURLEY         CLEAR     37  28  70 SW7       30.04R WCI  32
JEROME         CLEAR     41  28  60 S6        30.05R
TWIN FALLS     CLEAR     46  26  45 S13       30.06R
$$

IDZ019>023-181300-
SOUTHEAST IDAHO


CITY           SKY/WX    TMP DP  RH WIND       PRES   REMARKS
IDAHO FALLS    CLEAR     32  27  81 CALM      30.05R
POCATELLO      CLEAR     41  27  57 S8        30.06R
REXBURG        CLEAR     31  25  78 N3        30.06R
$$

IDZ006-010-011-018-031-032-181300-
CENTRAL IDAHO MOUNTAINS


CITY           SKY/WX    TMP DP  RH WIND       PRES   REMARKS
MCCALL         CLEAR     40  27  59 N6        30.16R
HAILEY         CLEAR     45  27  49 N9        30.09S
STANLEY          N/A     24  19  81 CALM      30.20R
SALMON         CLEAR     30  25  80 CALM      30.14R
CHALLIS        CLEAR     34  22  61 CALM      30.14S
$$

IDZ002-004-006-007-026-181300-
NORTHERN IDAHO


CITY           SKY/WX    TMP DP  RH WIND       PRES   REMARKS
LEWISTON       CLEAR     46  36  68 W5        30.18R
LOWELL           N/A     39  37  92 CALM      30.23R
COEUR D`ALENE  CLEAR     39  34  81 CALM      30.19R
MULLAN PASS    CLEAR     35  29  78 NW6       30.16R WCI  30
$$


USA.gov is the U.S. government's official web portal to all federal, state and local government web resources and services.